User: anonymous   Login
Location: Boca do Mato
(22.9085°S, 43.2930°W)
Time: 06:59:52
(UTC+00:00)
Language:

Helios 1A Rocket - Orbit

View from above orbital plane
View from above orbital plane
View from above satellite
View from above satellite

Ground track
Ground track

The orbit data is extracted from the following two-line orbital elements,

1 23608U 95033D   20273.90915582 +.00000248 +00000-0 +27097-4 0  9995
2 23608 098.3206 291.9976 0015601 254.0293 105.9209 14.97388886367071
Epoch (UTC): 29 September 2020 21:49:11
Eccentricity: 0.0015601
inclination: 98.3206°
perigee height: 564 km
apogee height: 586 km
right ascension of ascending node: 291.9976°
argument of perigee: 254.0293°
revolutions per day: 14.97388886
mean anomaly at epoch: 105.9209°
orbit number at epoch: 36707

The dashed part of the orbit path shows where the satellite is in the earth's shadow,  

DLR